Weather History for Aberdeen / Amory, MS

Change the Weather History Date:

Thursday, December 6, 2012

  Actual Average (KCBM) Record (KCBM)
Temperature  
Mean Temperature 61 °F -  
Max Temperature 69 °F 56 °F 78 °F (1998)
Min Temperature 53 °F 38 °F 21 °F (2005)
Degree Days  
Heating Degree Days 4    
Growing Degree Days 11 (Base 50)    
Moisture  
Dew Point 43 °F    
Average Humidity 55    
Maximum Humidity 60    
Minimum Humidity 51    
Precipitation  
Precipitation 0.00 in - - ()
Sea Level Pressure  
Sea Level Pressure 30.04 in    
Wind  
Wind Speed 2 mph (SSE)    
Max Wind Speed 10 mph    
Max Gust Speed -    
Visibility 7 miles    
Events      
Averages and records for this station are not official NWS values.
T = Trace of Precipitation, MM = Missing Value Source: NWS Daily Summary

Daily Weather History Graph

Daily Weather History Graph

Search for Another Location

Airport:

Trip Planner

Search our weather history database for the weather conditions in past years. The results will help you decide how hot, cold, wet, or windy it might be!

Date:

Astronomy

Dec. 06, 2012 Rise Set
Actual Time 6:45 AM CST 4:44 PM CST
Civil Twilight 6:18 AM CST 5:12 PM CST
Nautical Twilight 5:46 AM CST 5:43 PM CST
Astronomical Twilight 5:16 AM CST 6:13 PM CST
Moon No Moon Rise 11:54 AM CST (12/6)
Length of Visible Light 10h 54m
Length of Day
9h 59m
Waning Gibbous, 49% of the Moon is Illuminated
Dec 6
Waning Gibbous
Dec 13
New
Dec 19
First Quarter
Dec 28
Full
Jan 4
Last Quarter

Hourly Weather History & Observations

Time (CST) Temp. Dew Point Humidity Pressure Visibility Wind Dir Wind Speed Gust Speed Precip Events Conditions
12:15 AM 55.4 °F 39.2 °F 54% 30.10 in 8.0 mi Calm Calm - N/A   Overcast
12:55 AM 55.4 °F 39.2 °F 54% 30.09 in 8.0 mi Calm Calm - N/A   Overcast
1:15 AM 55.4 °F 39.2 °F 54% 30.09 in 5.0 mi Calm Calm - N/A   Haze
1:35 AM 55.4 °F 39.2 °F 54% 30.09 in 5.0 mi Calm Calm - N/A   Haze
1:55 AM 55.4 °F 39.2 °F 54% 30.09 in 4.0 mi Calm Calm - N/A   Haze
2:15 AM 55.4 °F 39.2 °F 54% 30.09 in 4.0 mi Calm Calm - N/A   Haze
2:35 AM 55.4 °F 39.2 °F 54% 30.09 in 3.0 mi Calm Calm - N/A   Haze
2:55 AM 55.4 °F 39.2 °F 54% 30.08 in 3.0 mi Calm Calm - N/A   Haze
3:15 AM 55.4 °F 39.2 °F 54% 30.08 in 3.0 mi Calm Calm - N/A   Haze
3:35 AM 55.4 °F 39.2 °F 54% 30.08 in 3.0 mi Calm Calm - N/A   Haze
3:55 AM 55.4 °F 39.2 °F 54% 30.08 in 2.5 mi North - - N/A   Haze
4:15 AM 55.4 °F 39.2 °F 54% 30.07 in 1.8 mi North - - N/A   Haze
4:35 AM 55.4 °F 39.2 °F 54% 30.08 in 0.2 mi North - - N/A   Haze
4:55 AM 55.4 °F 39.2 °F 54% 30.07 in 0.2 mi Calm Calm - N/A   Haze
5:15 AM 55.4 °F 39.2 °F 54% 30.07 in 1.0 mi Calm Calm - N/A   Haze
5:35 AM 55.4 °F 39.2 °F 54% 30.08 in 2.0 mi Calm Calm - N/A   Haze
5:55 AM 55.4 °F 39.2 °F 54% 30.08 in 3.0 mi Calm Calm - N/A   Haze
6:15 AM 55.4 °F 39.2 °F 54% 30.08 in 4.0 mi Calm Calm - N/A   Haze
6:35 AM 55.4 °F 39.2 °F 54% 30.08 in 4.0 mi North - - N/A   Haze
6:55 AM 55.4 °F 39.2 °F 54% 30.09 in 3.0 mi Calm Calm - N/A   Haze
7:15 AM 55.4 °F 39.2 °F 54% 30.09 in 2.0 mi Calm Calm - N/A   Haze
7:35 AM 55.4 °F 39.2 °F 54% 30.09 in 3.0 mi North - - N/A   Haze
7:55 AM 57.2 °F 39.2 °F 51% 30.09 in 4.0 mi Calm Calm - N/A   Haze
8:15 AM 57.2 °F 41.0 °F 55% 30.09 in 5.0 mi Calm Calm - N/A   Haze
8:35 AM 57.2 °F 42.8 °F 59% 30.09 in 7.0 mi Calm Calm - N/A   Mostly Cloudy
8:55 AM 57.2 °F 42.8 °F 59% 30.09 in 8.0 mi South 3.5 mph - N/A   Mostly Cloudy
9:15 AM 59.0 °F 42.8 °F 55% 30.09 in 8.0 mi South 4.6 mph - N/A   Mostly Cloudy
9:35 AM 60.8 °F 44.6 °F 55% 30.10 in 8.0 mi South 6.9 mph - N/A   Scattered Clouds
9:55 AM 60.8 °F 44.6 °F 55% 30.09 in 9.0 mi SSE 6.9 mph - N/A   Mostly Cloudy
10:15 AM 62.6 °F 44.6 °F 52% 30.09 in 8.0 mi South 5.8 mph - N/A   Scattered Clouds
10:35 AM 62.6 °F 46.4 °F 55% 30.09 in 9.0 mi South 5.8 mph - N/A   Mostly Cloudy
10:55 AM 64.4 °F 48.2 °F 56% 30.08 in 7.0 mi South 5.8 mph - N/A   Mostly Cloudy
11:15 AM 66.2 °F 51.8 °F 60% 30.07 in 9.0 mi SSE 4.6 mph - N/A   Scattered Clouds
11:55 AM 64.4 °F 48.2 °F 56% 30.05 in 9.0 mi South 5.8 mph - N/A   Mostly Cloudy
12:15 PM 66.2 °F 48.2 °F 52% 30.04 in 9.0 mi South 6.9 mph - N/A   Mostly Cloudy
12:35 PM 66.2 °F 50.0 °F 56% 30.03 in 10.0 mi South 5.8 mph - N/A   Mostly Cloudy
12:55 PM 66.2 °F 50.0 °F 56% 30.03 in 8.0 mi SSW 4.6 mph - N/A   Scattered Clouds
1:15 PM 66.2 °F 50.0 °F 56% 30.02 in 9.0 mi South 4.6 mph - N/A   Scattered Clouds
1:35 PM 68.0 °F 51.8 °F 56% 30.01 in 9.0 mi South 4.6 mph - N/A   Partly Cloudy
1:55 PM 69.8 °F 51.8 °F 53% 30.01 in 10.0 mi SSW 5.8 mph - N/A   Scattered Clouds
2:15 PM 68.0 °F 51.8 °F 56% 30.00 in 9.0 mi South 5.8 mph - N/A   Partly Cloudy
2:35 PM 69.8 °F 51.8 °F 53% 30.00 in 9.0 mi South 3.5 mph - N/A   Partly Cloudy
2:55 PM 69.8 °F 53.6 °F 56% 29.99 in 8.0 mi South 5.8 mph - N/A   Clear
3:15 PM 69.8 °F 53.6 °F 56% 30.00 in 5.0 mi South 3.5 mph - N/A   Haze
3:35 PM 69.8 °F 53.6 °F 56% 30.00 in 9.0 mi South 4.6 mph - N/A   Partly Cloudy
3:55 PM 69.8 °F 51.8 °F 53% 30.00 in 9.0 mi South 4.6 mph - N/A   Partly Cloudy
4:15 PM 68.0 °F 51.8 °F 56% 30.00 in 10.0 mi Calm Calm - N/A   Partly Cloudy
4:35 PM 66.2 °F 48.2 °F 52% 30.00 in 10.0 mi North - - N/A   Clear
4:55 PM 62.6 °F 46.4 °F 55% 30.00 in 7.0 mi Calm Calm - N/A   Scattered Clouds
5:15 PM 60.8 °F 44.6 °F 55% 30.00 in 9.0 mi Calm Calm - N/A   Scattered Clouds
5:35 PM 60.8 °F 44.6 °F 55% 30.00 in 9.0 mi Calm Calm - N/A   Mostly Cloudy
5:55 PM 59.0 °F 42.8 °F 55% 30.00 in 7.0 mi Calm Calm - N/A   Scattered Clouds
6:15 PM 57.2 °F 42.8 °F 59% 29.99 in 7.0 mi Calm Calm - N/A   Clear
6:35 PM 57.2 °F 39.2 °F 51% 30.00 in 3.0 mi ESE 3.5 mph - N/A   Haze
6:55 PM 57.2 °F 41.0 °F 55% 29.99 in 4.0 mi ESE 4.6 mph - N/A   Haze
7:15 PM 59.0 °F 42.8 °F 55% 29.99 in 6.0 mi SE 4.6 mph - N/A   Haze
7:35 PM 57.2 °F 42.8 °F 59% 29.99 in 9.0 mi SE 3.5 mph - N/A   Clear
7:55 PM 59.0 °F 42.8 °F 55% 29.99 in 10.0 mi SE 3.5 mph - N/A   Clear
8:35 PM 59.0 °F 42.8 °F 55% 29.99 in 10.0 mi SE 3.5 mph - N/A   Clear
8:55 PM 57.2 °F 41.0 °F 55% 30.00 in 10.0 mi SE 4.6 mph - N/A   Clear
9:15 PM 57.2 °F 41.0 °F 55% 29.99 in 10.0 mi SE 3.5 mph - N/A   Clear
9:35 PM 57.2 °F 39.2 °F 51% 30.00 in 10.0 mi SE 4.6 mph - N/A   Clear
9:55 PM 57.2 °F 39.2 °F 51% 30.00 in 10.0 mi Calm Calm - N/A   Clear
10:15 PM 55.4 °F 37.4 °F 51% 30.00 in 9.0 mi Calm Calm - N/A   Clear
10:55 PM 53.6 °F 37.4 °F 54% 30.00 in 10.0 mi SSE 3.5 mph - N/A   Clear
11:15 PM 55.4 °F 39.2 °F 54% 30.00 in 10.0 mi SSE 5.8 mph - N/A   Clear
11:55 PM 57.2 °F 41.0 °F 55% 29.99 in 10.0 mi SSE 10.4 mph - N/A   Clear